Wind_Speed
95 95 95 95 95 95 94 94 93 92 92 91 91 91 91 92 93 93 93 92 91 91 92 92 93 92 91 91 90 89 88 87 86 86 85 85 84 83 82 81 80 79
100 100 100 100 100 99 99 99 99 99 98 98 97 96 96 95 95 95 95 96 96 95 95 95 95 95 95 95 95 95 94 92 91 91 90 89 88 87 86 85 85 84
105 105 105 105 105 105 104 104 104 104 104 104 103 103 102 102 101 100 100 100 100 100 100 100 100 100 100 99 99 99 98 98 97 96 95 94 93 92 90 89 89 88
109 109 110 110 110 110 110 109 109 109 109 109 108 108 108 107 107 106 106 105 104 105 105 106 105 106 106 105 104 103 102 102 102 101 100 99 99 97 96 95 94 93
113 113 113 114 114 115 115 114 114 114 114 114 113 113 113 112 112 111 111 110 110 110 110 110 110 110 110 110 109 108 107 107 107 106 105 104 104 103 102 101 100 99
116 116 116 117 118 118 119 119 119 119 118 118 118 118 117 117 116 116 116 115 115 114 114 114 114 114 114 114 113 112 111 111 112 112 111 110 109 108 107 106 106 105
120 120 120 120 121 122 122 122 123 123 123 123 122 122 121 121 121 121 120 120 119 119 119 119 119 119 118 118 118 117 116 116 116 116 116 115 114 113 113 112 112 111
125 124 124 124 125 125 125 126 126 127 127 127 127 127 126 126 125 125 125 124 124 124 124 124 123 123 123 123 122 122 121 121 121 120 120 120 119 118 118 117 117 116
128 128 128 128 128 128 129 129 129 130 130 130 131 131 131 130 130 130 130 129 129 128 128 128 128 128 127 127 127 127 126 126 125 125 124 124 123 123 123 122 121 120
131 131 131 131 131 132 132 132 133 133 133 134 134 134 135 135 134 134 135 134 134 133 133 132 132 132 132 132 132 131 131 130 130 129 129 128 128 128 127 127 126 125
133 133 132 133 133 134 135 136 136 136 137 137 138 138 138 139 139 139 139 139 139 139 138 138 138 137 137 137 137 136 135 135 134 134 133 133 132 132 132 132 131 130
132 132 132 132 132 133 135 136 138 139 140 140 141 142 142 143 143 143 143 143 143 143 143 143 143 143 143 142 142 141 141 140 139 139 138 137 137 136 136 136 135 135
130 130 131 131 131 131 132 134 135 137 139 140 142 143 144 145 145 146 147 147 147 147 147 147 148 149 149 149 149 147 146 145 145 144 143 142 141 141 141 141 140 139
126 127 128 129 129 130 130 131 132 133 135 136 138 140 141 142 143 144 146 147 148 148 148 148 148 150 151 153 154 154 153 151 150 148 147 146 145 145 145 144 144 144
123 123 124 126 127 128 129 130 131 131 132 133 134 135 137 138 139 140 141 142 144 145 145 146 146 147 148 150 152 153 154 154 154 153 152 150 149 148 147 147 147 147
122 123 123 124 125 126 127 128 129 130 131 131 132 133 133 134 135 136 136 137 139 140 142 142 143 144 144 145 147 149 150 152 152 153 153 153 152 151 150 150 149 148
121 122 123 123 124 125 125 126 127 128 129 130 131 131 131 132 132 132 132 133 134 135 136 137 139 140 141 143 144 145 146 147 148 149 150 150 151 151 151 151 151 150
118 119 120 121 122 123 124 125 126 126 127 128 129 129 130 130 130 130 130 131 131 131 131 131 133 135 137 138 140 141 142 143 144 144 145 146 146 147 148 149 150 151
113 114 114 115 117 118 120 121 123 124 125 127 127 128 128 129 129 130 130 130 130 129 128 128 128 129 131 133 135 136 137 138 139 139 140 141 141 142 143 144 145 147
109 109 110 110 111 112 113 115 116 118 120 122 124 125 125 126 127 128 129 129 130 129 128 127 126 126 128 129 131 132 133 133 133 133 133 134 136 137 137 138 139 140
106 106 107 107 107 108 109 110 111 112 113 115 117 118 119 121 122 123 124 126 127 128 128 127 126 126 127 127 128 129 130 131 130 128 127 127 128 129 131 132 133 134
105 105 105 105 105 106 106 107 107 108 109 110 111 112 113 115 116 117 119 120 122 123 124 124 124 125 126 127 127 127 128 128 128 127 125 124 122 122 123 125 126 127
103 103 103 103 103 104 104 104 105 106 107 108 108 109 109 110 112 113 114 115 116 118 120 120 120 121 124 126 127 127 127 127 126 125 124 123 121 120 120 120 121 122
99 100 100 100 100 101 101 102 102 103 104 105 106 106 106 107 108 109 110 111 112 113 115 116 116 116 119 122 125 126 128 127 126 124 122 121 120 120 120 120 119 119
96 96 96 97 97 97 98 98 99 100 101 102 102 103 103 103 105 106 107 108 109 111 112 113 113 113 115 118 121 123 125 127 126 124 121 119 118 118 119 120 120 119
93 93 93 94 94 94 94 94 95 96 97 98 98 99 100 100 101 103 104 105 107 109 110 111 112 112 113 116 118 120 122 123 124 123 121 119 118 117 117 118 119 119
Wind_Direction
265 265 264 264 264 265 265 264 263 263 262 261 261 261 261 261 262 263 264 263 263 263 263 263 263 262 262 262 261 260 260 259 260 260 260 260 260 259 258 258 258 259
264 264 264 264 263 263 263 263 263 263 263 262 262 261 261 261 261 261 261 262 262 262 262 262 262 262 262 263 262 261 261 260 259 259 259 260 260 260 259 258 258 258
264 263 263 263 263 262 262 262 262 262 262 262 262 262 262 262 261 261 260 260 260 261 261 261 262 262 262 263 263 262 261 260 260 259 259 259 259 259 259 258 258 258
264 264 263 263 262 262 261 261 261 261 261 261 261 261 261 261 261 261 261 260 260 260 260 260 260 261 261 262 262 262 261 260 260 260 259 259 259 259 259 258 258 258
263 263 263 263 263 263 262 261 261 260 260 260 259 259 260 260 260 260 260 260 260 260 260 260 260 260 260 260 260 260 260 260 260 260 260 260 259 259 259 258 258 259
263 262 262 261 262 262 262 262 262 261 260 260 259 259 259 259 259 259 259 259 259 259 260 260 260 260 260 260 259 259 259 258 258 259 259 259 259 259 259 259 259 259
263 262 262 261 260 260 260 260 261 261 261 261 260 260 259 259 259 259 258 258 258 258 259 259 260 260 260 260 259 259 259 258 258 258 258 258 258 258 259 259 259 260
263 262 262 261 260 260 259 259 259 259 259 260 260 260 260 259 259 259 259 258 258 258 258 258 259 259 260 260 260 260 259 259 258 258 258 258 258 258 258 258 258 259
263 262 261 261 260 260 260 259 259 258 258 258 258 258 258 258 258 259 259 259 259 258 258 258 258 258 258 259 259 259 259 259 259 259 259 259 259 259 259 258 259 259
262 262 261 260 260 260 259 259 259 259 258 258 258 257 257 257 257 257 257 258 258 258 258 257 257 257 258 258 258 258 258 258 259 259 259 259 259 259 259 259 259 259
263 262 261 260 260 260 259 259 259 259 258 258 258 258 257 257 257 257 257 257 257 257 257 257 256 256 256 256 257 257 257 258 258 258 258 258 258 258 259 259 259 259
264 263 262 261 261 260 260 259 259 259 259 258 258 258 258 258 257 257 257 257 257 257 257 257 256 256 256 255 255 255 255 256 256 257 257 257 257 257 258 258 258 259
264 264 264 264 263 262 261 260 260 259 259 259 259 259 258 258 258 258 258 259 258 258 257 257 257 257 256 256 255 255 254 254 254 255 255 256 256 256 257 257 258 258
264 264 264 264 264 263 263 262 261 260 260 259 259 259 259 259 259 259 259 259 260 259 259 258 258 257 257 257 257 256 255 255 254 254 254 254 254 254 255 255 256 256
263 263 263 263 263 263 263 263 263 262 261 261 260 260 260 259 259 259 259 259 260 260 260 260 259 259 258 258 258 258 257 256 256 255 254 254 254 254 254 254 254 255
263 263 263 263 263 263 263 263 263 263 263 263 262 262 261 261 261 260 260 260 260 260 260 260 260 260 260 259 259 259 259 258 258 257 256 255 255 255 255 255 255 255
263 263 263 264 264 264 264 264 264 264 264 264 264 264 264 263 263 263 262 262 261 261 261 261 261 261 261 261 260 260 259 259 259 258 258 257 257 256 256 256 256 256
265 264 264 263 263 263 264 264 264 264 264 264 264 265 265 265 265 265 264 264 263 263 262 262 261 261 261 261 261 261 261 260 260 259 259 259 258 258 258 257 257 257
267 266 265 264 264 263 263 263 263 263 263 264 264 264 264 265 265 265 266 266 265 265 264 263 263 262 262 262 262 261 261 261 260 260 260 260 260 259 259 259 258 258
268 268 267 266 265 265 264 263 263 262 262 262 263 263 263 263 264 264 265 266 266 266 266 265 265 264 264 263 263 263 263 262 261 260 260 260 260 260 260 259 259 259
269 268 268 267 267 266 265 265 264 264 263 263 263 263 263 263 263 263 264 264 265 266 266 266 266 266 265 265 264 264 264 264 263 262 261 260 259 259 259 259 259 259
270 269 269 268 268 267 267 266 265 265 264 264 263 263 263 263 262 262 262 263 263 264 264 265 265 266 266 266 266 265 264 264 264 264 263 262 261 260 259 259 259 259
271 271 270 270 269 269 268 268 267 266 266 265 264 264 263 263 263 263 262 262 262 263 263 264 264 264 265 266 266 266 266 265 264 264 264 264 263 262 261 260 259 259
272 272 271 271 270 270 269 269 268 268 267 266 266 265 264 264 264 264 263 263 263 263 263 263 263 263 263 263 264 265 265 266 265 265 264 263 263 263 263 262 261 260
273 273 272 272 271 270 270 269 269 268 268 267 267 267 266 265 265 265 264 263 263 263 262 262 262 261 261 261 262 262 263 264 265 265 265 264 264 263 263 263 263 262
274 274 273 273 272 271 271 270 270 269 269 268 268 267 267 266 265 265 264 264 263 263 262 262 262 261 261 261 261 261 261 262 262 263 264 265 265 264 263 263 263 263
Height
10562 10562 10562 10562 10562 10562 10562 10562 10562 10562 10562 10562 10562 10562 10562 10562 10562 10562 10562 10562 10563 10564 10564 10563 10564 10564 10564 10564 10565 10566 10567 10567 10568 10568 10569 10570 10572 10573 10575 10576 10577 10578
10546 10546 10546 10546 10547 10547 10547 10547 10547 10547 10547 10548 10548 10548 10548 10549 10549 10549 10549 10549 10549 10550 10551 10551 10551 10552 10552 10552 10552 10554 10555 10556 10556 10556 10557 10559 10559 10561 10563 10564 10565 10567
10529 10529 10529 10529 10530 10531 10531 10532 10532 10532 10532 10532 10533 10533 10533 10534 10534 10535 10535 10535 10535 10535 10536 10537 10538 10538 10539 10539 10540 10541 10542 10543 10543 10543 10545 10547 10547 10548 10550 10550 10552 10554
10511 10511 10511 10512 10512 10513 10514 10515 10515 10515 10516 10516 10516 10516 10517 10517 10518 10519 10519 10520 10520 10520 10520 10521 10523 10524 10525 10526 10526 10527 10528 10529 10529 10530 10532 10534 10533 10535 10536 10537 10539 10541
10494 10494 10493 10493 10493 10493 10494 10495 10496 10497 10498 10498 10499 10499 10500 10500 10501 10502 10502 10503 10504 10504 10504 10504 10506 10507 10508 10510 10511 10512 10513 10514 10514 10515 10518 10520 10519 10521 10523 10523 10525 10527
10476 10476 10476 10476 10475 10474 10474 10474 10475 10476 10477 10478 10480 10481 10482 10482 10483 10484 10484 10485 10486 10487 10487 10487 10488 10489 10491 10493 10494 10496 10497 10498 10499 10500 10503 10505 10505 10507 10508 10508 10511 10513
10456 10456 10457 10457 10457 10456 10456 10456 10456 10456 10456 10457 10459 10460 10462 10463 10464 10464 10466 10467 10468 10469 10470 10470 10470 10471 10472 10474 10476 10478 10479 10480 10482 10483 10486 10488 10490 10492 10493 10493 10496 10498
10434 10435 10436 10436 10436 10436 10436 10437 10437 10437 10437 10437 10438 10439 10441 10442 10443 10443 10445 10446 10448 10450 10451 10452 10453 10453 10453 10455 10457 10459 10461 10462 10464 10466 10468 10470 10472 10475 10476 10477 10480 10483
10411 10412 10413 10414 10414 10414 10414 10415 10415 10416 10417 10417 10418 10418 10420 10421 10423 10423 10424 10425 10426 10429 10431 10432 10433 10434 10435 10436 10437 10439 10441 10443 10445 10448 10450 10452 10454 10456 10458 10459 10463 10466
10389 10389 10390 10391 10391 10392 10392 10392 10393 10393 10394 10395 10396 10397 10398 10399 10401 10403 10403 10404 10405 10407 10409 10411 10412 10414 10415 10416 10417 10419 10422 10424 10425 10428 10431 10433 10435 10437 10439 10441 10444 10448
10365 10366 10368 10369 10369 10369 10369 10369 10370 10370 10371 10371 10372 10374 10375 10376 10378 10380 10381 10383 10384 10385 10386 10388 10390 10392 10394 10395 10396 10398 10401 10403 10405 10408 10410 10414 10416 10418 10420 10422 10425 10429
10341 10342 10344 10346 10347 10348 10348 10347 10347 10347 10348 10348 10349 10350 10351 10352 10354 10356 10357 10359 10361 10363 10364 10365 10366 10368 10370 10373 10375 10376 10379 10382 10385 10387 10390 10393 10396 10399 10401 10403 10406 10409
10321 10320 10320 10321 10323 10324 10325 10325 10324 10324 10325 10325 10325 10326 10327 10328 10330 10331 10333 10334 10336 10339 10341 10342 10343 10344 10345 10347 10350 10352 10355 10359 10362 10366 10369 10372 10375 10378 10381 10384 10386 10389
10302 10301 10300 10299 10299 10299 10299 10300 10301 10302 10302 10303 10303 10303 10304 10305 10307 10309 10310 10310 10312 10314 10316 10318 10320 10322 10321 10321 10323 10326 10329 10334 10338 10342 10347 10351 10353 10357 10360 10364 10367 10369
10282 10282 10282 10281 10279 10278 10277 10276 10277 10278 10279 10280 10281 10281 10281 10282 10284 10286 10288 10289 10289 10290 10291 10294 10296 10298 10299 10298 10299 10301 10303 10307 10313 10318 10323 10327 10331 10335 10338 10342 10346 10348
10262 10262 10262 10262 10261 10260 10259 10257 10257 10256 10256 10257 10257 10258 10259 10260 10262 10264 10266 10267 10269 10269 10270 10271 10273 10275 10276 10276 10277 10278 10279 10282 10287 10293 10298 10303 10308 10313 10316 10320 10323 10327
10244 10244 10244 10243 10242 10241 10240 10240 10239 10239 10238 10237 10236 10236 10237 10238 10240 10242 10244 10244 10246 10249 10250 10251 10252 10253 10253 10253 10255 10256 10257 10260 10264 10269 10274 10279 10285 10290 10294 10298 10301 10304
10225 10225 10226 10225 10224 10223 10222 10222 10221 10221 10220 10219 10218 10218 10217 10217 10218 10219 10220 10222 10223 10226 10229 10231 10233 10234 10233 10232 10233 10234 10235 10238 10242 10247 10252 10256 10262 10267 10272 10276 10279 10282
10203 10204 10205 10205 10205 10204 10203 10203 10203 10202 10201 10200 10199 10200 10200 10200 10199 10198 10198 10199 10199 10201 10206 10210 10213 10215 10214 10211 10211 10213 10214 10215 10220 10226 10232 10236 10240 10245 10250 10255 10258 10260
10182 10182 10182 10183 10184 10183 10183 10183 10183 10183 10183 10181 10180 10181 10182 10183 10183 10183 10182 10181 10180 10179 10182 10187 10192 10195 10194 10191 10191 10192 10192 10193 10197 10205 10212 10217 10221 10225 10229 10233 10237 10240
10162 10162 10162 10163 10163 10162 10162 10163 10163 10162 10163 10163 10162 10163 10165 10166 10167 10167 10167 10166 10165 10163 10163 10167 10171 10173 10171 10170 10171 10172 10171 10170 10173 10181 10190 10197 10202 10206 10209 10212 10216 10219
10142 10142 10143 10144 10144 10143 10143 10144 10143 10143 10144 10144 10144 10145 10147 10148 10149 10150 10150 10150 10150 10149 10147 10150 10155 10155 10150 10148 10148 10150 10150 10150 10151 10157 10164 10171 10180 10187 10190 10193 10196 10199
10124 10123 10124 10126 10126 10125 10125 10125 10125 10124 10124 10124 10124 10126 10129 10130 10130 10131 10133 10133 10134 10134 10132 10133 10139 10141 10136 10130 10128 10128 10127 10127 10130 10135 10141 10147 10155 10162 10167 10171 10176 10179
10108 10106 10106 10107 10108 10107 10107 10107 10107 10106 10105 10105 10105 10107 10111 10113 10112 10113 10116 10117 10117 10118 10117 10116 10121 10126 10122 10115 10112 10110 10107 10105 10108 10113 10120 10127 10134 10139 10143 10146 10151 10157
10091 10090 10090 10089 10090 10090 10090 10090 10090 10089 10088 10088 10088 10089 10092 10095 10095 10094 10097 10099 10098 10097 10098 10098 10101 10106 10105 10098 10093 10093 10091 10088 10089 10092 10098 10107 10114 10119 10122 10123 10126 10133
10075 10074 10074 10073 10072 10073 10074 10073 10072 10072 10072 10072 10072 10073 10074 10077 10078 10076 10076 10080 10079 10076 10077 10079 10080 10084 10086 10080 10074 10074 10074 10072 10072 10075 10081 10088 10093 10096 10100 10104 10107 10112